Location: Coopersdale
(40.3556°N, 78.9372°W)
Time: 00:00:04
(UTC+00:00)

Transit 4A - Pass Details

Date: 30 January 2021
Orbit: 867 x 978 km, 66.8° (Epoch: 07 March)

Event Time Altitude Azimuth Distance (km) Brightness Sun altitude
Rises 23:43:10 0° 236° (SW) 3,664 12.4 -13.8°
Reaches altitude 10° 23:45:59 10° 245° (WSW) 2,723 11.6 -14.3°
Maximum altitude 23:51:43 34° 310° (NW) 1,543 9.4 -15.4°
Drops below altitude 10° 23:57:28 10° 14° (NNE) 2,713 10.1 -16.4°
Enters shadow 23:59:53 - 23° (NNE) 3,511 10.6 -16.9°
Sets 00:00:17 0° 24° (NNE) 3,650 - -17.0°
